When you browse on this site, cookies collect data to enhance your experience and personalize the content and advertising you see.
Visit our Privacy Policy to learn more. By continuing to use the site, you agree to this use of cookies and data.
  • în România
  • Lista ţărilor
  • Pe 7 zile
  • Temperatura apei
  • Meteo pe hartă
  • Widget-uri
  • user-avatar
    Intrare

    Meteo pe oră la Ciudad Bolívar

    Astăzi, 26 Ianuarie, Duminică

    Timp Temperatura Precipitaţii Vânt Presiune Umiditate
    00:00 +28°C° 0 mm 5 m/s 753 mmHg 65%
    01:00 +27°C° 0 mm 5 m/s 752 mmHg 70%
    02:00 +26°C° 0 mm 4 m/s 752 mmHg 73%
    03:00 +25°C° 0 mm 4 m/s 753 mmHg 76%
    04:00 +25°C° 0 mm 4 m/s 753 mmHg 79%
    05:00 +25°C° 0 mm 3 m/s 753 mmHg 83%
    06:00 +25°C° 0 mm 3 m/s 753 mmHg 81%
    07:00 +25°C° 0 mm 3 m/s 754 mmHg 80%
    08:00 +26°C° 0 mm 3 m/s 754 mmHg 79%
    09:00 +28°C° 0 mm 4 m/s 754 mmHg 70%
    10:00 +29°C° 0 mm 4 m/s 755 mmHg 61%
    11:00 +32°C° 0 mm 4 m/s 755 mmHg 53%
    12:00 +34°C° 0 mm 4 m/s 754 mmHg 45%
    13:00 +35°C° 0 mm 3 m/s 753 mmHg 38%
    14:00 +37°C° 0 mm 3 m/s 752 mmHg 30%
    15:00 +36°C° 0 mm 3 m/s 751 mmHg 30%
    16:00 +36°C° 0 mm 3 m/s 751 mmHg 30%
    17:00 +36°C° 0 mm 3 m/s 750 mmHg 29%
    18:00 +34°C° 0 mm 4 m/s 751 mmHg 34%
    19:00 +33°C° 0 mm 4 m/s 751 mmHg 39%
    20:00 +30°C° 0 mm 4 m/s 752 mmHg 44%
    21:00 +30°C° 0 mm 5 m/s 752 mmHg 49%
    22:00 +29°C° 0 mm 5 m/s 753 mmHg 55%
    23:00 +28°C° 0 mm 5 m/s 754 mmHg 60%

    Mâine, 27 Ianuarie, Luni

    Timp Temperatura Precipitaţii Vânt Presiune Umiditate
    00:00 +28°C° 0 mm 5 m/s 753 mmHg 66%
    01:00 +27°C° 0 mm 5 m/s 753 mmHg 72%
    02:00 +26°C° 0 mm 5 m/s 753 mmHg 79%
    03:00 +26°C° 0 mm 4 m/s 753 mmHg 81%
    04:00 +26°C° 0 mm 4 m/s 753 mmHg 83%
    05:00 +25°C° 0 mm 3 m/s 753 mmHg 85%
    06:00 +26°C° 0 mm 3 m/s 753 mmHg 84%
    07:00 +26°C° 0 mm 4 m/s 753 mmHg 83%
    08:00 +26°C° 0 mm 4 m/s 754 mmHg 82%
    09:00 +28°C° 0 mm 4 m/s 754 mmHg 75%
    10:00 +29°C° 0 mm 4 m/s 754 mmHg 68%
    11:00 +32°C° 0 mm 4 m/s 754 mmHg 61%
    12:00 +33°C° 0 mm 4 m/s 753 mmHg 53%
    13:00 +35°C° 0 mm 3 m/s 752 mmHg 46%
    14:00 +36°C° 0 mm 3 m/s 751 mmHg 39%
    15:00 +36°C° 0 mm 3 m/s 751 mmHg 37%
    16:00 +37°C° 0 mm 3 m/s 750 mmHg 36%
    17:00 +37°C° 0 mm 3 m/s 750 mmHg 35%
    18:00 +35°C° 0 mm 4 m/s 750 mmHg 42%
    19:00 +34°C° 0 mm 4 m/s 751 mmHg 48%
    20:00 +32°C° 0 mm 5 m/s 751 mmHg 54%
    21:00 +32°C° 0 mm 5 m/s 752 mmHg 59%
    22:00 +30°C° 0 mm 5 m/s 752 mmHg 64%
    23:00 +29°C° 0 mm 5 m/s 753 mmHg 69%

    Poimâine, 28 Ianuarie, Marţi

    Timp Temperatura Precipitaţii Vânt Presiune Umiditate
    00:00 +28°C° 0 mm 5 m/s 752 mmHg 71%
    01:00 +28°C° 0 mm 4 m/s 752 mmHg 74%
    02:00 +27°C° 0 mm 4 m/s 752 mmHg 76%
    03:00 +27°C° 0 mm 4 m/s 752 mmHg 79%
    04:00 +26°C° 0 mm 4 m/s 752 mmHg 81%
    05:00 +26°C° 0 mm 4 m/s 752 mmHg 83%
    06:00 +27°C° 0 mm 4 m/s 752 mmHg 82%
    07:00 +27°C° 0 mm 4 m/s 753 mmHg 80%
    08:00 +27°C° 0 mm 4 m/s 753 mmHg 78%
    09:00 +28°C° 0 mm 4 m/s 753 mmHg 72%
    10:00 +30°C° 0 mm 4 m/s 754 mmHg 66%
    11:00 +32°C° 0 mm 4 m/s 754 mmHg 60%
    12:00 +33°C° 0 mm 3 m/s 753 mmHg 57%
    13:00 +33°C° 0 mm 3 m/s 752 mmHg 54%
    14:00 +34°C° 0 mm 3 m/s 751 mmHg 51%
    15:00 +35°C° 0 mm 3 m/s 750 mmHg 49%
    16:00 +35°C° 0 mm 3 m/s 750 mmHg 47%
    17:00 +35°C° 0 mm 3 m/s 749 mmHg 45%
    18:00 +34°C° 0 mm 3 m/s 750 mmHg 49%
    19:00 +33°C° 0 mm 3 m/s 750 mmHg 52%
    20:00 +31°C° 0 mm 3 m/s 751 mmHg 56%
    21:00 +30°C° 0 mm 4 m/s 751 mmHg 61%
    22:00 +29°C° 0 mm 4 m/s 751 mmHg 67%
    23:00 +29°C° 0 mm 5 m/s 752 mmHg 72%

    29 Ianuarie, Miercuri

    Timp Temperatura Precipitaţii Vânt Presiune Umiditate
    00:00 +28°C° 0 mm 5 m/s 752 mmHg 74%
    01:00 +28°C° 0 mm 5 m/s 751 mmHg 75%
    02:00 +27°C° 0 mm 5 m/s 751 mmHg 77%
    03:00 +27°C° 0 mm 4 m/s 751 mmHg 79%
    04:00 +27°C° 0 mm 4 m/s 751 mmHg 80%
    05:00 +26°C° 0 mm 3 m/s 751 mmHg 82%
    06:00 +27°C° 0 mm 3 m/s 752 mmHg 78%
    07:00 +27°C° 0 mm 4 m/s 752 mmHg 75%
    08:00 +28°C° 0 mm 4 m/s 753 mmHg 71%
    09:00 +30°C° 0 mm 4 m/s 753 mmHg 63%
    10:00 +33°C° 0 mm 4 m/s 753 mmHg 55%
    11:00 +35°C° 0 mm 4 m/s 753 mmHg 46%
    12:00 +36°C° 0 mm 4 m/s 752 mmHg 42%
    13:00 +37°C° 0 mm 4 m/s 751 mmHg 38%
    14:00 +38°C° 0 mm 4 m/s 750 mmHg 34%
    15:00 +38°C° 0 mm 4 m/s 750 mmHg 35%
    16:00 +38°C° 0 mm 4 m/s 749 mmHg 36%
    17:00 +37°C° 0 mm 4 m/s 749 mmHg 38%
    18:00 +36°C° 0 mm 5 m/s 749 mmHg 43%
    19:00 +35°C° 0 mm 5 m/s 750 mmHg 48%
    20:00 +33°C° 0 mm 6 m/s 750 mmHg 54%
    21:00 +32°C° 0 mm 6 m/s 751 mmHg 58%
    22:00 +30°C° 0 mm 6 m/s 751 mmHg 63%
    23:00 +29°C° 0 mm 6 m/s 752 mmHg 67%

    30 Ianuarie, Joi

    Timp Temperatura Precipitaţii Vânt Presiune Umiditate
    00:00 +29°C° 0 mm 6 m/s 751 mmHg 70%
    01:00 +28°C° 0 mm 5 m/s 751 mmHg 73%
    02:00 +27°C° 0 mm 5 m/s 751 mmHg 76%
    03:00 +27°C° 0 mm 4 m/s 751 mmHg 77%
    04:00 +27°C° 0 mm 4 m/s 751 mmHg 79%
    05:00 +27°C° 0 mm 4 m/s 752 mmHg 80%
    06:00 +27°C° 0 mm 4 m/s 752 mmHg 77%
    07:00 +27°C° 0 mm 4 m/s 753 mmHg 74%
    08:00 +28°C° 0 mm 4 m/s 753 mmHg 72%
    09:00 +30°C° 0 mm 5 m/s 753 mmHg 63%
    10:00 +32°C° 0 mm 5 m/s 753 mmHg 54%
    11:00 +34°C° 0 mm 5 m/s 753 mmHg 46%
    12:00 +36°C° 0 mm 5 m/s 753 mmHg 41%
    13:00 +37°C° 0 mm 5 m/s 752 mmHg 36%
    14:00 +38°C° 0 mm 4 m/s 751 mmHg 31%
    15:00 +39°C° 0 mm 5 m/s 750 mmHg 32%
    16:00 +39°C° 0 mm 5 m/s 750 mmHg 33%
    17:00 +37°C° 0 mm 5 m/s 749 mmHg 33%
    18:00 +36°C° 0 mm 5 m/s 750 mmHg 39%
    19:00 +34°C° 0 mm 6 m/s 751 mmHg 44%
    20:00 +33°C° 0 mm 6 m/s 751 mmHg 50%
    21:00 +32°C° 0 mm 6 m/s 752 mmHg 55%
    22:00 +30°C° 0 mm 6 m/s 752 mmHg 60%
    23:00 +29°C° 0 mm 6 m/s 753 mmHg 65%

    31 Ianuarie, Vineri

    Timp Temperatura Precipitaţii Vânt Presiune Umiditate
    00:00 +28°C° 0 mm 6 m/s 752 mmHg 68%
    01:00 +28°C° 0 mm 5 m/s 752 mmHg 70%
    02:00 +27°C° 0 mm 5 m/s 752 mmHg 73%
    03:00 +27°C° 0 mm 5 m/s 752 mmHg 74%
    04:00 +26°C° 0 mm 4 m/s 752 mmHg 75%
    05:00 +26°C° 0 mm 4 m/s 752 mmHg 76%
    06:00 +26°C° 0 mm 4 m/s 753 mmHg 75%
    07:00 +27°C° 0 mm 5 m/s 753 mmHg 73%
    08:00 +27°C° 0 mm 5 m/s 754 mmHg 72%
    09:00 +29°C° 0 mm 5 m/s 754 mmHg 64%
    10:00 +32°C° 0 mm 5 m/s 754 mmHg 55%
    11:00 +34°C° 0 mm 5 m/s 754 mmHg 47%
    12:00 +35°C° 0 mm 5 m/s 753 mmHg 42%
    13:00 +36°C° 0 mm 5 m/s 753 mmHg 38%
    14:00 +37°C° 0 mm 4 m/s 752 mmHg 33%
    15:00 +37°C° 0 mm 5 m/s 751 mmHg 34%
    16:00 +37°C° 0 mm 5 m/s 751 mmHg 35%
    17:00 +37°C° 0 mm 5 m/s 750 mmHg 36%
    18:00 +35°C° 0 mm 5 m/s 751 mmHg 41%
    19:00 +34°C° 0 mm 5 m/s 751 mmHg 47%
    20:00 +32°C° 0 mm 5 m/s 752 mmHg 53%
    21:00 +30°C° 0 mm 5 m/s 752 mmHg 56%
    22:00 +29°C° 0 mm 5 m/s 753 mmHg 60%
    23:00 +29°C° 0 mm 6 m/s 753 mmHg 64%
    Arată mai mult